Location: A�t Lahcen
(32.8243°N, 5.4246°W)
Time: 00:56:34
(UTC+00:00)

OAO 3 Copernicus - Pass Details

Date: 27 January 2021
Orbit: 694 x 705 km, 35.0° (Epoch: 26 February)

Event Time Altitude Azimuth Distance (km) Brightness Sun altitude
Exits shadow 05:27:14 63° 325° (NW) 770 4.2 -23.7°
Maximum altitude 05:27:41 68° 359° (N) 748 4.3 -23.6°
Drops below altitude 10° 05:32:42 10° 82° (E) 2,149 7.9 -22.5°
Sets 05:35:08 0° 85° (E) 3,069 9.0 -22.0°
